[[{"header":{"parameterUnit":"m.s-1","parameterCategory":1,"la1":30.2991,"la2":30.254,"lo1":-89.0895,"lo2":-89.0444,"dy":0.0017,"dx":0.0017,"nx":28,"ny":28,"refTime":"2023-04-25T21:00:00:Z","depth":0,"parameterNumber":2,"parameterNumberName":"U-component_of_WINDS"},"data":[0,0,0,0,0,0,0,0,0,0,0,0,0,0,0,0,0,0,0,0,0,0,0,0,0,0,0,0,0,0,0,0,0,0,0,0,0,0,0,0,0,0,0,0,0,0,0,0,0,0,0,0,0,0,0,0,0,0,-2.2896,-2.2896,0,-2.2896,-2.2896,-2.2896,-2.2789,-2.2786,-2.2784,-2.2781,-2.2784,-2.2786,-2.2789,0,0,0,0,0,0,0,0,0,0,0,0,0,-2.2807,-2.2809,-2.2896,-2.2896,-2.2896,-2.2896,-2.2896,-2.2896,-2.279,-2.2786,-2.2783,-2.278,-2.2783,-2.2786,-2.2789,0,0,0,0,0,0,0,0,0,0,0,0,0,-2.283,-2.281,-2.2896,-2.2843,-2.2838,-2.2896,-2.2896,-2.2896,-2.279,-2.2786,-2.2782,-2.2778,-2.2782,-2.2786,-2.279,-2.2899,0,0,-2.2802,-2.2804,0,0,0,0,0,0,0,0,-2.2829,-2.2834,-2.2851,-2.2847,-2.2842,-2.2838,-2.2865,-2.2897,-2.2792,-2.2809,-2.2781,-2.2776,-2.2806,-2.2807,-2.2817,-2.2899,-2.2899,-2.2803,-2.2805,-2.2807,-2.2808,0,0,0,0,0,0,0,-2.2828,-2.2833,-2.2896,-2.2851,-2.2846,-2.282,-2.2819,-2.2871,-2.2831,-2.2807,-2.2799,-2.28,-2.2802,-2.2813,-2.2816,-2.2899,-2.2802,-2.2806,-2.2809,-2.281,-2.3071,-2.3076,0,0,0,0,0,0,-2.2833,-2.2832,-2.2896,-2.2896,-2.2825,-2.2825,-2.2823,-2.2844,-2.283,-2.2824,-2.2804,-2.2795,-2.2808,-2.2811,-2.2816,-2.2943,-2.2807,-2.2811,-2.2813,-2.3067,-2.3072,-2.3077,0,0,0,0,0,0,-2.2831,-2.284,-2.2896,-2.2862,-2.2867,-2.2831,-2.2855,-2.2846,-2.2856,-2.2828,-2.282,-2.2822,-2.2805,-2.281,-2.2879,-2.2941,-2.2812,-2.2816,-2.3061,-2.3068,-2.3075,-2.3198,0,0,0,0,0,0,-2.2829,-2.284,-2.288,-2.2864,-2.287,-2.2959,-2.2858,-2.2849,-2.2863,-2.2852,-2.2843,-2.2837,-2.2802,-2.2873,-2.2883,-2.2945,-2.2819,-2.3056,-2.3065,-2.3073,-2.3188,-2.3208,-2.3225,0,0,0,0,0,-2.2826,-2.2916,-2.2883,-2.2891,-2.292,-2.2963,-2.2966,-2.2923,-2.2869,-2.291,-2.2891,-2.2838,-2.2933,-2.2881,-2.2891,-2.2955,-2.3052,-2.3062,-2.3072,-2.318,-2.3204,-2.3225,0,0,0,0,0,0,-2.2942,-2.2913,-2.2876,-2.2963,-2.2966,-2.2945,-2.2995,-2.295,-2.297,-2.2959,-2.2905,-2.2904,-2.2981,-2.2975,-2.2918,-2.306,-2.2983,-2.2995,-2.3061,-2.3084,-2.3102,-2.3103,-2.2823,0,0,0,0,0,-2.2978,-2.3014,-2.2987,-2.3066,-2.3069,-2.3033,-2.305,-2.3016,-2.3017,-2.3019,-2.3005,-2.301,-2.304,-2.3062,-2.3088,-2.3186,-2.3183,-2.3235,-2.3253,-2.3269,-2.3281,-2.3332,-2.3355,-2.311,-2.311,-2.311,0,0,-2.3052,-2.304,-2.3067,-2.3089,-2.3088,-2.3128,-2.3034,-2.3081,-2.311,-2.3026,-2.309,-2.308,-2.3081,-2.3165,-2.3202,-2.3162,-2.3347,-2.3282,-2.3294,-2.3298,-2.3345,-2.3368,-2.3388,-2.3117,-2.3116,-2.3115,0,0,-2.3207,-2.3202,-2.3267,-2.3267,-2.3265,-2.324,-2.3256,-2.3241,-2.3231,-2.3294,-2.3232,-2.3266,-2.332,-2.3323,-2.3332,-2.3488,-2.344,-2.3498,-2.3595,-2.3646,-2.3665,-2.3682,-2.3738,-2.3758,-2.351,-2.351,-2.351,0,-2.3299,-2.3356,-2.3306,-2.3357,-2.3368,-2.3292,-2.3358,-2.3361,-2.3369,-2.338,-2.3335,-2.34,-2.3396,-2.348,-2.3518,-2.3527,-2.3544,-2.3499,-2.3666,-2.3682,-2.3697,-2.375,-2.3771,-2.3517,-2.3516,-2.3516,-2.3515,0,-2.347,-2.3511,-2.3564,-2.3572,-2.3589,-2.3648,-2.3607,-2.3631,-2.3595,-2.3575,-2.364,-2.3632,-2.3655,-2.3672,-2.3638,-2.3751,-2.3727,-2.3675,-2.3597,-2.3729,-2.3777,-2.3797,-2.3527,-2.3525,-2.3523,-2.3521,0,0,-2.37,-2.3679,-2.3699,-2.3702,-2.3694,-2.3725,-2.3779,-2.3801,-2.3823,-2.383,-2.3875,-2.3922,-2.3874,-2.3884,-2.385,-2.3894,-2.4018,-2.3836,-2.3836,-2.3871,-2.4142,-2.4182,-2.4206,-2.3985,-2.3989,-2.3992,-2.4142,0,-2.3851,-2.3942,-2.3898,-2.3995,-2.4031,-2.3959,-2.4007,-2.4008,-2.399,-2.4019,-2.3999,-2.4033,-2.3967,-2.3972,-2.4013,-2.3994,-2.4072,-2.3983,-2.4027,-2.403,-2.403,-2.4231,-2.4273,-2.4416,-2.4161,-2.4164,-2.4166,0,-2.4039,-2.4053,-2.4153,-2.4138,-2.4152,-2.4195,-2.4212,-2.424,-2.424,-2.4223,-2.4234,-2.4189,-2.4242,-2.4164,-2.4236,-2.4177,-2.4192,-2.4186,-2.419,-2.4193,-2.4107,-2.4241,-2.446,-2.4482,-2.4196,-2.4193,-2.4191,0,-2.4197,-2.4241,-2.4307,-2.4311,-2.4295,-2.4327,-2.4322,-2.4317,-2.4333,-2.4347,-2.4357,-2.4378,-2.439,-2.4407,-2.4369,-2.4315,-2.4447,-2.4365,-2.4436,-2.4437,-2.4468,-2.4467,-2.4694,-2.4477,-2.4477,-2.4476,-2.4476,0,-2.437,-2.4435,-2.4377,-2.4418,-2.4488,-2.4437,-2.4508,-2.4495,-2.4491,-2.4528,-2.4467,-2.4503,-2.445,-2.4482,-2.4453,-2.4517,-2.4523,-2.4512,-2.4504,-2.4518,-2.452,-2.4528,-2.4518,-2.4482,-2.4481,-2.4479,-2.4479,0,-2.4559,-2.4523,-2.459,-2.4569,-2.4565,-2.4617,-2.4599,-2.4636,-2.4613,-2.4661,-2.4669,-2.4634,-2.4668,-2.4631,-2.4663,-2.4643,-2.473,-2.4707,-2.4731,-2.4724,-2.4797,-2.4791,-2.5038,-2.5068,-2.4832,-2.4834,-2.4836,0,-2.4673,-2.472,-2.4704,-2.4723,-2.4722,-2.4755,-2.477,-2.4721,-2.474,-2.4742,-2.4779,-2.4807,-2.4827,-2.4885,-2.4862,-2.4886,-2.4863,-2.4948,-2.4867,-2.4879,-2.4865,-2.4863,-2.4868,-2.4965,-2.4968,-2.497,-2.4972,0,-2.4878,-2.4857,-2.4881,-2.4899,-2.4919,-2.4931,-2.4938,-2.4959,-2.4908,-2.4932,-2.4965,-2.4981,-2.5011,-2.5041,-2.5057,-2.5053,-2.5005,-2.4998,-2.5015,-2.5031,-2.5043,-2.5038,-2.4777,-2.4993,-2.4991,-2.4989,-2.4988,-2.4987,-2.5033,-2.5072,-2.5066,-2.5094,-2.5094,-2.5103,-2.5136,-2.5117,-2.5143,-2.5164,-2.5134,-2.5175,-2.5173,-2.519,-2.5191,-2.5223,-2.5187,-2.5212,-2.5219,-2.5226,-2.5237,-2.5037,-2.5226,-2.5225,-2.5224,-2.5224,-2.5223,0,-2.5235,-2.5228,-2.5254,-2.5266,-2.5289,-2.524,-2.5245,-2.5268,-2.5304,-2.5306,-2.5326,-2.5364,-2.5392,-2.5371,-2.5394,-2.5424,-2.5402,-2.5432,-2.5429,-2.5429,-2.5268,-2.5251,-2.5449,-2.5448,-2.5448,-2.5448,-2.5448,-2.5448,-2.5344,-2.5406,-2.5385,-2.5448,-2.544,-2.5479,-2.5486,-2.5493,-2.5494,-2.5539,-2.5561,-2.5547,-2.5539,-2.5561,-2.5585,-2.5578,-2.559,-2.5627,-2.5613,-2.5463,-2.5441,-2.542,-2.5403,-2.563,-2.563,-2.5771,-2.5772,-2.5773]},{"header":{"parameterUnit":"m.s-1","parameterCategory":1,"la1":30.2991,"la2":30.254,"lo1":-89.0895,"lo2":-89.0444,"dy":0.0017,"dx":0.0017,"nx":28,"ny":28,"refTime":"2023-04-25T21:00:00:Z","depth":0,"parameterNumber":3,"parameterNumberName":"V-component_of_WINDS"},"data":[0,0,0,0,0,0,0,0,0,0,0,0,0,0,0,0,0,0,0,0,0,0,0,0,0,0,0,0,0,0,0,0,0,0,0,0,0,0,0,0,0,0,0,0,0,0,0,0,0,0,0,0,0,0,0,0,0,0,-2.1534,-2.1534,0,-2.153,-2.153,-2.153,-2.1511,-2.1511,-2.151,-2.151,-2.1505,-2.1505,-2.1505,0,0,0,0,0,0,0,0,0,0,0,0,0,-2.1525,-2.1526,-2.1534,-2.1534,-2.1534,-2.153,-2.153,-2.153,-2.1511,-2.1511,-2.151,-2.151,-2.1505,-2.1505,-2.1505,0,0,0,0,0,0,0,0,0,0,0,0,0,-2.1526,-2.1526,-2.1534,-2.1524,-2.1523,-2.153,-2.153,-2.153,-2.1511,-2.1511,-2.151,-2.1509,-2.1505,-2.1505,-2.1505,-2.1521,0,0,-2.1507,-2.1507,0,0,0,0,0,0,0,0,-2.1526,-2.1526,-2.1526,-2.1525,-2.1524,-2.152,-2.1525,-2.1527,-2.1511,-2.1516,-2.151,-2.1509,-2.1511,-2.151,-2.1511,-2.1521,-2.152,-2.1507,-2.1507,-2.1507,-2.1507,0,0,0,0,0,0,0,-2.1526,-2.1526,-2.1532,-2.1526,-2.1525,-2.152,-2.1519,-2.1525,-2.1517,-2.1515,-2.1514,-2.1514,-2.151,-2.1511,-2.1511,-2.152,-2.1507,-2.1507,-2.1507,-2.1507,-2.1541,-2.1542,0,0,0,0,0,0,-2.1527,-2.1526,-2.1533,-2.1532,-2.1523,-2.152,-2.152,-2.1522,-2.1517,-2.1515,-2.1514,-2.1513,-2.151,-2.151,-2.151,-2.1527,-2.1507,-2.1508,-2.1508,-2.154,-2.1541,-2.1542,0,0,0,0,0,0,-2.1527,-2.1528,-2.1533,-2.1529,-2.1529,-2.1521,-2.1524,-2.1522,-2.1523,-2.1516,-2.1514,-2.1517,-2.151,-2.151,-2.1518,-2.1527,-2.1508,-2.1508,-2.154,-2.1541,-2.1542,-2.1561,0,0,0,0,0,0,-2.1527,-2.1528,-2.1534,-2.1529,-2.1529,-2.1541,-2.1525,-2.1523,-2.1524,-2.1522,-2.1518,-2.1516,-2.1509,-2.1518,-2.1519,-2.1527,-2.1508,-2.1539,-2.154,-2.1541,-2.156,-2.1563,-2.1565,0,0,0,0,0,-2.1527,-2.154,-2.1535,-2.1535,-2.1537,-2.1541,-2.1542,-2.1533,-2.1525,-2.153,-2.1526,-2.1517,-2.1526,-2.1519,-2.152,-2.1528,-2.1538,-2.154,-2.1541,-2.1558,-2.1562,-2.1565,0,0,0,0,0,0,-2.1546,-2.1539,-2.1533,-2.1545,-2.1544,-2.1538,-2.1545,-2.1538,-2.1539,-2.1537,-2.1526,-2.1525,-2.1535,-2.1532,-2.1525,-2.1542,-2.153,-2.1532,-2.1543,-2.1547,-2.1549,-2.1549,-2.1509,0,0,0,0,0,-2.1552,-2.1557,-2.155,-2.1561,-2.1561,-2.1553,-2.1555,-2.1549,-2.1547,-2.1546,-2.1542,-2.1541,-2.1543,-2.1545,-2.1547,-2.156,-2.1558,-2.1566,-2.1569,-2.1571,-2.1572,-2.1578,-2.1581,-2.1547,-2.1547,-2.1547,0,0,-2.1564,-2.1561,-2.1564,-2.1565,-2.1564,-2.1568,-2.1553,-2.1559,-2.1562,-2.1547,-2.1554,-2.1551,-2.1549,-2.1559,-2.1563,-2.1557,-2.1581,-2.1573,-2.1575,-2.1575,-2.1579,-2.1583,-2.1585,-2.1548,-2.1547,-2.1547,0,0,-2.1588,-2.1586,-2.1595,-2.1593,-2.1591,-2.1585,-2.1588,-2.1583,-2.158,-2.1587,-2.1576,-2.1579,-2.1584,-2.1582,-2.1582,-2.1604,-2.1595,-2.1605,-2.162,-2.1625,-2.1628,-2.163,-2.1637,-2.1639,-2.1607,-2.1607,-2.1607,0,-2.1602,-2.1609,-2.16,-2.1606,-2.1606,-2.1594,-2.1602,-2.1601,-2.1599,-2.1599,-2.1593,-2.1598,-2.1595,-2.1604,-2.161,-2.161,-2.1612,-2.1605,-2.1628,-2.163,-2.1632,-2.1639,-2.1641,-2.1608,-2.1608,-2.1608,-2.1608,0,-2.1627,-2.1631,-2.1639,-2.1637,-2.1638,-2.1646,-2.1637,-2.164,-2.1633,-2.1628,-2.1635,-2.1632,-2.1632,-2.1634,-2.1628,-2.1642,-2.1638,-2.163,-2.1618,-2.1637,-2.1642,-2.1645,-2.161,-2.1609,-2.1609,-2.1609,0,0,-2.1662,-2.1656,-2.1658,-2.1657,-2.1653,-2.1656,-2.1662,-2.1663,-2.1664,-2.1664,-2.1668,-2.1672,-2.1664,-2.1664,-2.1657,-2.1662,-2.1679,-2.1653,-2.1653,-2.1657,-2.1693,-2.1698,-2.1701,-2.1673,-2.1673,-2.1674,-2.1692,0,-2.1684,-2.1694,-2.1686,-2.1698,-2.1701,-2.1689,-2.1694,-2.1692,-2.1688,-2.169,-2.1685,-2.1687,-2.1677,-2.1677,-2.1681,-2.1676,-2.1685,-2.1674,-2.1676,-2.1676,-2.1676,-2.1704,-2.171,-2.1728,-2.1695,-2.1695,-2.1695,0,-2.1711,-2.1711,-2.1723,-2.1717,-2.1718,-2.1723,-2.1722,-2.1725,-2.1722,-2.1718,-2.1717,-2.1709,-2.1714,-2.1703,-2.1709,-2.1702,-2.1702,-2.1699,-2.17,-2.1699,-2.1686,-2.1703,-2.1734,-2.1736,-2.1699,-2.1699,-2.1699,0,-2.1734,-2.1737,-2.1744,-2.1744,-2.1738,-2.1741,-2.1739,-2.1735,-2.1736,-2.1735,-2.1735,-2.1735,-2.1735,-2.1735,-2.1727,-2.1719,-2.1733,-2.1722,-2.173,-2.173,-2.1733,-2.1733,-2.1763,-2.1735,-2.1735,-2.1734,-2.1734,0,-2.1759,-2.1766,-2.1755,-2.1759,-2.1767,-2.1757,-2.1765,-2.1761,-2.1758,-2.1761,-2.175,-2.1753,-2.1743,-2.1744,-2.1738,-2.1743,-2.1744,-2.174,-2.1738,-2.1741,-2.1741,-2.174,-2.1738,-2.1735,-2.1735,-2.1735,-2.1735,0,-2.1786,-2.1779,-2.1785,-2.1779,-2.1777,-2.1783,-2.1778,-2.1781,-2.1776,-2.1779,-2.178,-2.1772,-2.1773,-2.1765,-2.1765,-2.176,-2.1768,-2.1765,-2.1769,-2.1768,-2.1776,-2.1775,-2.1806,-2.1809,-2.178,-2.178,-2.1781,0,-2.1801,-2.1807,-2.1801,-2.1802,-2.18,-2.1802,-2.1802,-2.1793,-2.1794,-2.179,-2.1794,-2.1794,-2.1794,-2.1797,-2.179,-2.179,-2.1786,-2.1796,-2.1785,-2.1787,-2.1785,-2.1784,-2.1784,-2.1799,-2.1799,-2.1799,-2.1799,0,-2.1829,-2.1825,-2.1826,-2.1826,-2.1826,-2.1826,-2.1824,-2.1826,-2.1815,-2.1817,-2.1818,-2.1818,-2.1817,-2.1817,-2.1815,-2.1812,-2.1804,-2.1803,-2.1805,-2.1807,-2.1809,-2.1807,-2.1775,-2.1802,-2.1802,-2.1802,-2.1802,-2.1801,-2.1851,-2.1854,-2.185,-2.1852,-2.1849,-2.1848,-2.185,-2.1845,-2.1846,-2.1845,-2.184,-2.1842,-2.1838,-2.1834,-2.1832,-2.1833,-2.1828,-2.183,-2.1831,-2.1831,-2.1832,-2.1809,-2.1833,-2.1833,-2.1833,-2.1832,-2.1832,0,-2.1877,-2.1874,-2.1875,-2.1873,-2.1874,-2.1866,-2.1864,-2.1864,-2.1866,-2.1863,-2.1863,-2.1864,-2.1864,-2.1858,-2.1857,-2.1859,-2.1855,-2.1858,-2.1858,-2.1857,-2.1838,-2.1836,-2.1862,-2.1862,-2.1862,-2.1862,-2.1862,-2.1862,-2.1891,-2.1897,-2.1892,-2.1896,-2.1893,-2.1895,-2.1894,-2.1892,-2.189,-2.1891,-2.1891,-2.1887,-2.1882,-2.1881,-2.188,-2.1878,-2.1878,-2.1883,-2.1879,-2.1861,-2.1859,-2.1856,-2.1854,-2.1883,-2.1883,-2.1898,-2.1898,-2.1899]}]]